Ogden Hill AFB, UT

7:32 PM MDT on May 20, 2018 (GMT -0600)
Hill Air Force Base

Weather History for KHIF - October, 2013

Change the Weather History Date:

Wednesday, October 2, 2013

  Actual Average Record
Temperature  
Mean Temperature 56 °F -  
Max Temperature 62 °F 67 °F 84 °F (2010)
Min Temperature 49 °F 46 °F 34 °F (2017)
Degree Days  
Heating Degree Days 10    
Growing Degree Days 6 (Base 50)    
Moisture  
Dew Point 42 °F    
Average Humidity 65    
Maximum Humidity 87    
Minimum Humidity 42    
Precipitation  
Precipitation 0.08 in - - ()
Sea Level Pressure  
Sea Level Pressure 29.87 in    
Wind  
Wind Speed 8 mph (East)    
Max Wind Speed 20 mph    
Max Gust Speed -    
Visibility 10 miles    
Events Rain    
Averages and records for this station are not official NWS values.
T = Trace of Precipitation, MM = Missing Value Source: NWS Daily Summary

Daily Weather History Graph

Daily Weather History Graph

Search for Another Location

Airport or City:

Astronomy

Oct. 02, 2013 Rise Set
Actual Time 7:25 AM MDT 7:07 PM MDT
Civil Twilight 6:58 AM MDT 7:35 PM MDT
Nautical Twilight 6:26 AM MDT 8:06 PM MDT
Astronomical Twilight 5:54 AM MDT 8:39 PM MDT
Moon 5:01 AM MDT (10/2) 5:46 PM MDT (10/2)
Length of Visible Light 12h 36m
Length of Day
11h 41m
Waning Crescent, 6% of the Moon is Illuminated
Oct 2
Waning Crescent
Oct 4
New
Oct 11
First Quarter
Oct 18
Full
Oct 26
Last Quarter

Hourly Weather History & Observations

Time (MDT) Temp. Dew Point Humidity Pressure Visibility Wind Dir Wind Speed Gust Speed Precip Events Conditions
12:58 AM 57.0 °F 34.5 °F 43% 29.84 in 10.0 mi NNW 4.6 mph - N/A   Overcast
1:55 AM 55.4 °F 37.4 °F 51% 29.98 in 10.0 mi NNW 9.2 mph - N/A   Partly Cloudy
2:58 AM 53.6 °F 37.9 °F 55% 29.87 in 10.0 mi NW 12.7 mph - N/A   Partly Cloudy
3:58 AM 51.1 °F 37.8 °F 60% 29.86 in 10.0 mi NW 6.9 mph - N/A   Mostly Cloudy
4:58 AM 52.2 °F 36.3 °F 55% 29.88 in 10.0 mi SE 5.8 mph - N/A   Overcast
5:58 AM 51.1 °F 39.9 °F 66% 29.88 in 10.0 mi SE 10.4 mph - N/A   Overcast
6:58 AM 51.3 °F 36.7 °F 57% 29.90 in 10.0 mi ESE 13.8 mph - N/A   Partly Cloudy
7:58 AM 50.7 °F 36.7 °F 59% 29.92 in 10.0 mi ESE 10.4 mph - N/A   Overcast
8:58 AM 51.1 °F 35.6 °F 55% 29.92 in 10.0 mi East 12.7 mph - N/A   Overcast
9:58 AM 55.8 °F 37.0 °F 49% 29.92 in 10.0 mi SSE 4.6 mph - N/A   Overcast
10:58 AM 56.7 °F 38.8 °F 51% 29.89 in 10.0 mi SE 4.6 mph - N/A   Overcast
11:58 AM 59.2 °F 40.3 °F 50% 29.88 in 10.0 mi South 8.1 mph - N/A   Overcast
12:58 PM 60.6 °F 40.1 °F 47% 29.86 in 10.0 mi South 5.8 mph - N/A   Overcast
1:58 PM 61.9 °F 40.1 °F 45% 29.82 in 10.0 mi South 5.8 mph - N/A   Overcast
2:58 PM 62.6 °F 39.2 °F 42% 29.80 in 10.0 mi SW 3.5 mph - N/A   Overcast
3:03 PM 62.6 °F 39.2 °F 42% 29.91 in 10.0 mi SW 5.8 mph - N/A   Overcast
3:07 PM 62.6 °F 41.0 °F 45% 29.91 in 10.0 mi West 9.2 mph - N/A Rain Light Rain
3:12 PM 60.8 °F 42.8 °F 52% 29.91 in 10.0 mi West 10.4 mph - N/A Rain Light Rain
3:18 PM 60.8 °F 41.0 °F 48% 29.91 in 10.0 mi West 9.2 mph - N/A   Overcast
3:58 PM 60.3 °F 40.3 °F 48% 29.80 in 10.0 mi WNW 3.5 mph - 0.00 in   Mostly Cloudy
4:58 PM 60.8 °F 41.7 °F 49% 29.78 in 10.0 mi North 5.8 mph - N/A   Overcast
5:20 PM 59.0 °F 41.0 °F 51% 29.89 in 10.0 mi NW 5.8 mph - N/A Rain Light Rain
5:58 PM 57.7 °F 45.5 °F 64% 29.81 in 10.0 mi NNW 11.5 mph - 0.00 in Rain Light Rain
6:58 PM 52.5 °F 45.0 °F 75% 29.83 in 10.0 mi ENE 5.8 mph - N/A Rain Light Rain
7:03 PM 51.8 °F 44.6 °F 76% 29.91 in 10.0 mi NE 4.6 mph - N/A   Overcast
7:10 PM 53.6 °F 44.6 °F 72% 29.89 in 10.0 mi NNE 4.6 mph - N/A Rain Light Rain
7:45 PM 51.8 °F 44.6 °F 76% 29.91 in 10.0 mi North 12.7 mph - N/A Rain Light Rain
7:58 PM 50.2 °F 45.3 °F 83% 29.84 in 10.0 mi NNE 8.1 mph - 0.02 in Rain Light Rain
8:03 PM 50.0 °F 44.6 °F 82% 29.91 in 10.0 mi NNE 5.8 mph - N/A Rain Light Rain
8:08 PM 50.0 °F 44.6 °F 82% 29.92 in 10.0 mi NE 5.8 mph - N/A Rain Light Rain
8:18 PM 50.0 °F 44.6 °F 82% 29.93 in 7.0 mi Variable 1.2 mph - N/A Rain Light Rain
8:23 PM 50.0 °F 44.6 °F 82% 29.92 in 7.0 mi East 8.1 mph - N/A Rain Light Rain
8:28 PM 50.0 °F 44.6 °F 82% 29.90 in 8.0 mi ENE 12.7 mph - N/A Rain Light Rain
8:43 PM 50.0 °F 46.4 °F 87% 29.90 in 9.0 mi East 11.5 mph - N/A Rain Light Rain
8:48 PM 50.0 °F 46.4 °F 87% 29.89 in 8.0 mi ESE 15.0 mph - N/A Rain Light Rain
8:53 PM 50.0 °F 44.6 °F 82% 29.89 in 8.0 mi ESE 11.5 mph - N/A Rain Light Rain
8:58 PM 49.3 °F 45.3 °F 86% 29.81 in 10.0 mi East 12.7 mph - 0.06 in Rain Light Rain
9:04 PM 50.0 °F 44.6 °F 82% 29.88 in 10.0 mi East 13.8 mph - N/A   Overcast
9:10 PM 50.0 °F 44.6 °F 82% 29.86 in 10.0 mi East 12.7 mph - N/A Rain Light Rain
9:21 PM 50.0 °F 44.6 °F 82% 29.86 in 10.0 mi ESE 19.6 mph - N/A   Mostly Cloudy
9:31 PM 50.0 °F 44.6 °F 82% 29.84 in 10.0 mi ESE 18.4 mph - N/A   Mostly Cloudy
9:58 PM 49.8 °F 43.3 °F 78% 29.75 in 10.0 mi ESE 12.7 mph - 0.00 in   Mostly Cloudy
10:58 PM 51.6 °F 43.3 °F 73% 29.74 in 10.0 mi ESE 12.7 mph - N/A   Overcast
11:58 PM 50.7 °F 43.5 °F 76% 29.74 in 10.0 mi ESE 10.4 mph - N/A   Partly Cloudy